This is the latest recevied weather packets stored in our database for station/object KJ6LNH-1. If no packets are shown the sender has not sent any weather packets the latest 10 day(s).
| Time | Temp. | Humidity | Pressure | Rain* | Wind** | Luminosity | Snow |
|---|---|---|---|---|---|---|---|
| 1787613309 | 33.33° C | 28% | 1011.8 hPa | 0 mm | - | - | - |
| 1787611806 | 33.33° C | 28% | 1011.9 hPa | 0 mm | - | - | - |
| 1787611506 | 32.22° C | 30% | 1011.9 hPa | 0 mm | - | - | - |
| 1787611207 | 31.67° C | 30% | 1012 hPa | 0 mm | - | - | - |
| 1787609708 | 32.78° C | 32% | 1012.2 hPa | 0 mm | - | - | - |
| 1787609109 | 32.22° C | 33% | 1012.3 hPa | 0 mm | - | - | - |
| 1787608807 | 32.22° C | 34% | 1012.3 hPa | 0 mm | - | - | - |
| 1787608508 | 32.22° C | 34% | 1012.3 hPa | 0 mm | - | - | - |
| 1787608207 | 32.22° C | 34% | 1012.3 hPa | 0 mm | - | - | - |
| 1787606707 | 31.67° C | 36% | 1012.4 hPa | 0 mm | - | - | - |
| 1787606406 | 31.67° C | 36% | 1012.5 hPa | 0 mm | - | - | - |
| 1787606107 | 32.22° C | 35% | 1012.6 hPa | 0 mm | - | - | - |
| 1787605807 | 31.67° C | 35% | 1012.6 hPa | 0 mm | - | - | - |
| 1787605507 | 31.67° C | 35% | 1012.5 hPa | 0 mm | - | - | - |
| 1787604607 | 31.11° C | 36% | 1012.6 hPa | 0 mm | - | - | - |
| 1787604307 | 31.11° C | 36% | 1012.6 hPa | 0 mm | - | - | - |
| 1787604007 | 31.11° C | 36% | 1012.6 hPa | 0 mm | - | - | - |
| 1787603707 | 30.56° C | 36% | 1012.7 hPa | 0 mm | - | - | - |
| 1787603408 | 30.56° C | 37% | 1012.8 hPa | 0 mm | - | - | - |
| 1787603107 | 30.56° C | 38% | 1012.8 hPa | 0 mm | - | - | - |
| 1787602807 | 30° C | 39% | 1012.8 hPa | 0 mm | - | - | - |
| 1787602508 | 29.44° C | 39% | 1012.8 hPa | 0 mm | - | - | - |
| 1787602206 | 30.56° C | 38% | 1012.8 hPa | 0 mm | - | - | - |
| 1787601907 | 30° C | 38% | 1012.7 hPa | 0 mm | - | - | - |
| 1787601607 | 30° C | 38% | 1012.8 hPa | 0 mm | - | - | - |
* Rain latest hour (hover to see other rain measurements)
** Current wind speed in m/s (hover to see current wind gust speed)